Hourly Data Report for September 26, 2017

All times are specified in Local Standard Time (LST). Add 1 hour to adjust for Daylight Saving Time where and when it is observed.

COMOX A
BRITISH COLUMBIA

49°43'00.000" N
124°54'00.000" W
25.60 m
1021830
71893
YQQ

Download Data

Hourly Data (September 2017)
Hourly Data Report for September 26, 2017
Temp Definition
°C
Dew Point Temp Definition
°C
Rel Hum Definition
%
Wind Dir Definition
10's deg

Wind Spd Definition
km/h
Visibility Definition
km
Stn Press Definition
kPa
Hmdx Definition


Wind Chill Definition


Weather Definition


TIME
00:00 14.2 13.4 95 33 4 32.2 101.83     Cloudy
01:00 13.9 13.2 96 35 6 32.2 101.88     Cloudy
02:00 14.0 13.3 96 31 4 32.2 101.88     Cloudy
03:00 13.8 13.3 97 35 7 32.2 101.89     Cloudy
04:00 14.0 13.5 97 32 9 24.1 101.92     Cloudy
05:00 14.1 13.5 96 31 4 24.1 101.91     Cloudy
06:00 14.3 13.6 96 29 4 24.1 101.95     Cloudy
07:00 14.4 13.6 95 27 4 24.1 102.00     Cloudy
08:00 14.9 13.6 92 33 4 24.1 102.01     Mostly Cloudy
09:00 15.8 14.2 90 4 4 24.1 102.00     Cloudy
10:00 15.9 14.0 88 3 6 24.1 102.03     Cloudy
11:00 15.9 14.0 88 3 7 32.2 102.06     Cloudy
12:00 16.2 13.9 86 2 4 32.2 102.05     Cloudy
13:00 17.5 13.9 79 5 6 32.2 102.03     Mostly Cloudy
14:00 18.1 13.9 76 7 6 32.2 102.00     Mainly Clear
15:00 18.7 13.9 74 4 7 32.2 101.94     Mainly Clear
16:00 18.1 13.9 76 36 7 32.2 101.91     Mainly Clear
17:00 17.4 13.9 80 36 9 32.2 101.87     Clear
18:00 16.4 13.3 82 33 4 32.2 101.84     Clear
19:00 15.7 13.4 86   0 32.2 101.83     Clear
20:00 14.0 13.2 95   0 32.2 101.84     Clear
21:00 13.7 12.9 95 23 4 32.2 101.86     Clear
22:00 12.8 12.3 97 19 4 32.2 101.87     Clear
23:00 12.6 12.3 98   0 32.2 101.88     Clear

Notes on Data Quality.

Legend

  • E = Estimated
  • M = Missing
  • NA = Not Available
  • ‡ = Partner data that is not subject to review by the National Climate Archives
Date modified: